Gwinner, ND

6:48 PM CDT on August 22, 2017 (GMT -0500)
Gwinner-melroe

Weather History for KGWR - September, 2013

Change the Weather History Date:

Monday, September 30, 2013

  Actual Average (KP67) Record (KP67)
Temperature  
Mean Temperature 63 °F -  
Max Temperature 78 °F 67 °F 70 °F (1997)
Min Temperature 48 °F 41 °F 39 °F (1997)
Degree Days  
Heating Degree Days 2    
Growing Degree Days 13 (Base 50)    
Moisture  
Dew Point 49 °F    
Average Humidity 66    
Maximum Humidity 100    
Minimum Humidity 29    
Precipitation  
Precipitation 0.00 in - - ()
Sea Level Pressure  
Sea Level Pressure 29.55 in    
Wind  
Wind Speed 7 mph (SSW)    
Max Wind Speed 24 mph    
Max Gust Speed 36 mph    
Visibility 10 miles    
Events      
Averages and records for this station are not official NWS values.
T = Trace of Precipitation, MM = Missing Value Source: NWS Daily Summary

Daily Weather History Graph

Daily Weather History Graph

Search for Another Location

Airport or City:

Trip Planner

Search our weather history database for the weather conditions in past years. The results will help you decide how hot, cold, wet, or windy it might be!

Date:

Astronomy

Sep. 30, 2013 Rise Set
Actual Time 7:28 AM CDT 7:11 PM CDT
Civil Twilight 6:58 AM CDT 7:41 PM CDT
Nautical Twilight 6:23 AM CDT 8:16 PM CDT
Astronomical Twilight 5:47 AM CDT 8:51 PM CDT
Moon 2:53 AM CDT (9/30) 4:54 PM CDT (9/30)
Length of Visible Light 12h 43m
Length of Day
11h 43m
Waning Crescent, 19% of the Moon is Illuminated
Sep 30
Waning Crescent
Oct 4
New
Oct 11
First Quarter
Oct 18
Full
Oct 26
Last Quarter

Hourly Weather History & Observations

Time (CDT) Temp. Dew Point Humidity Pressure Visibility Wind Dir Wind Speed Gust Speed Precip Events Conditions
12:15 AM 57.2 °F 51.8 °F 82% 29.56 in 10.0 mi SSW 6.9 mph - 0.00 in   Clear
12:35 AM 57.2 °F 53.6 °F 88% 29.56 in 10.0 mi SW 6.9 mph - 0.00 in   Clear
12:55 AM 57.2 °F 51.8 °F 82% 29.56 in 10.0 mi SW 8.1 mph - 0.00 in   Clear
1:15 AM 57.2 °F 50.0 °F 77% 29.57 in 10.0 mi SW 9.2 mph - 0.00 in   Clear
1:35 AM 57.2 °F 51.8 °F 82% 29.56 in 10.0 mi SW 8.1 mph - 0.00 in   Clear
1:55 AM 55.4 °F 50.0 °F 82% 29.56 in 10.0 mi SW 9.2 mph - 0.00 in   Clear
2:15 AM 55.4 °F 50.0 °F 82% 29.56 in 10.0 mi SW 8.1 mph - 0.00 in   Clear
2:35 AM 55.4 °F 48.2 °F 77% 29.57 in 10.0 mi WSW 10.4 mph - 0.00 in   Clear
2:55 AM 55.4 °F 50.0 °F 82% 29.57 in 10.0 mi SW 9.2 mph - 0.00 in   Clear
3:15 AM 55.4 °F 50.0 °F 82% 29.57 in 10.0 mi SW 8.1 mph - 0.00 in   Clear
3:35 AM 53.6 °F 50.0 °F 88% 29.57 in 10.0 mi SW 9.2 mph - 0.00 in   Clear
3:55 AM 55.4 °F 50.0 °F 82% 29.57 in 10.0 mi SW 11.5 mph - 0.00 in   Clear
4:15 AM 55.4 °F 50.0 °F 82% 29.56 in 10.0 mi SW 10.4 mph - 0.00 in   Clear
4:35 AM 55.4 °F 50.0 °F 82% 29.57 in 10.0 mi SW 10.4 mph - 0.00 in   Clear
4:55 AM 53.6 °F 50.0 °F 88% 29.56 in 10.0 mi SW 10.4 mph - 0.00 in   Clear
5:15 AM 53.6 °F 50.0 °F 88% 29.56 in 10.0 mi WSW 10.4 mph - 0.00 in   Clear
5:35 AM 53.6 °F 50.0 °F 88% 29.57 in 10.0 mi WSW 10.4 mph - 0.00 in   Clear
5:55 AM 53.6 °F 50.0 °F 88% 29.57 in 10.0 mi WSW 10.4 mph - 0.00 in   Clear
6:15 AM 51.8 °F 48.2 °F 88% 29.57 in 10.0 mi SSW 6.9 mph - 0.00 in   Clear
6:35 AM 51.8 °F 50.0 °F 94% 29.58 in 10.0 mi WSW 5.8 mph - 0.00 in   Clear
6:55 AM 51.8 °F 50.0 °F 94% 29.58 in 10.0 mi WSW 6.9 mph - 0.00 in   Clear
7:15 AM 50.0 °F 48.2 °F 94% 29.58 in 10.0 mi Calm Calm - 0.00 in   Clear
7:35 AM 48.2 °F 48.2 °F 100% 29.58 in 10.0 mi West 8.1 mph - 0.00 in   Clear
7:55 AM 50.0 °F 48.2 °F 94% 29.59 in 10.0 mi West 4.6 mph - 0.00 in   Clear
8:15 AM 51.8 °F 48.2 °F 88% 29.59 in 10.0 mi West 5.8 mph - 0.00 in   Clear
8:35 AM 51.8 °F 50.0 °F 94% 29.58 in 10.0 mi SW 4.6 mph - 0.00 in   Clear
8:55 AM 53.6 °F 50.0 °F 88% 29.59 in 10.0 mi SW 5.8 mph - 0.00 in   Clear
9:15 AM 55.4 °F 50.0 °F 82% 29.59 in 10.0 mi West 3.5 mph - 0.00 in   Clear
9:35 AM 57.2 °F 48.2 °F 72% 29.59 in 10.0 mi WSW 4.6 mph - 0.00 in   Clear
9:55 AM 60.8 °F 48.2 °F 63% 29.59 in 10.0 mi WSW 4.6 mph - 0.00 in   Clear
10:15 AM 62.6 °F 48.2 °F 59% 29.59 in 10.0 mi West 3.5 mph - 0.00 in   Clear
10:35 AM 64.4 °F 46.4 °F 52% 29.59 in 9.0 mi NW 3.5 mph - 0.00 in   Clear
10:55 AM 68.0 °F 46.4 °F 46% 29.58 in 10.0 mi Calm Calm - 0.00 in   Clear
11:15 AM 69.8 °F 44.6 °F 40% 29.58 in 10.0 mi Calm Calm - 0.00 in   Clear
11:35 AM 71.6 °F 42.8 °F 35% 29.60 in 10.0 mi North 4.6 mph - 0.00 in   Clear
11:55 AM 73.4 °F 41.0 °F 31% 29.59 in 10.0 mi Calm Calm - 0.00 in   Clear
12:15 PM 73.4 °F 42.8 °F 33% 29.59 in 10.0 mi Calm Calm - 0.00 in   Clear
12:35 PM 73.4 °F 41.0 °F 31% 29.59 in 10.0 mi NNW 3.5 mph - 0.00 in   Clear
12:55 PM 75.2 °F 42.8 °F 31% 29.58 in 9.0 mi South 3.5 mph - 0.00 in   Clear
1:15 PM 75.2 °F 42.8 °F 31% 29.57 in 10.0 mi SE 3.5 mph - 0.00 in   Clear
1:35 PM 75.2 °F 42.8 °F 31% 29.57 in 10.0 mi SSE 4.6 mph - 0.00 in   Clear
1:55 PM 75.2 °F 44.6 °F 34% 29.56 in 9.0 mi South 4.6 mph - 0.00 in   Clear
2:15 PM 77.0 °F 44.6 °F 32% 29.56 in 10.0 mi SSE 5.8 mph - 0.00 in   Clear
2:35 PM 77.0 °F 44.6 °F 32% 29.55 in 9.0 mi East 3.5 mph - 0.00 in   Clear
2:55 PM 77.0 °F 44.6 °F 32% 29.55 in 5.0 mi ESE 6.9 mph - 0.00 in   Clear
3:15 PM 77.0 °F 46.4 °F 34% 29.55 in 10.0 mi SSE 5.8 mph - 0.00 in   Clear
3:35 PM 77.0 °F 42.8 °F 29% 29.54 in 10.0 mi South 4.6 mph - 0.00 in   Clear
3:55 PM 78.8 °F 44.6 °F 30% 29.53 in 9.0 mi SE 4.6 mph - 0.00 in   Clear
4:15 PM 78.8 °F 46.4 °F 32% 29.52 in 10.0 mi ESE 5.8 mph - 0.00 in   Clear
4:35 PM 78.8 °F 46.4 °F 32% 29.52 in 10.0 mi SE 5.8 mph - 0.00 in   Clear
4:55 PM 78.8 °F 46.4 °F 32% 29.52 in 10.0 mi ESE 4.6 mph - 0.00 in   Clear
5:15 PM 75.2 °F 48.2 °F 38% 29.51 in 10.0 mi ESE 5.8 mph - 0.00 in   Clear
5:35 PM 75.2 °F 48.2 °F 38% 29.51 in 10.0 mi East 4.6 mph - 0.00 in   Clear
5:55 PM 73.4 °F 50.0 °F 44% 29.52 in 10.0 mi ESE 6.9 mph - 0.00 in   Clear
6:15 PM 73.4 °F 51.8 °F 47% 29.52 in 10.0 mi SSE 4.6 mph - 0.00 in   Clear
6:35 PM 71.6 °F 53.6 °F 53% 29.51 in 10.0 mi SSE 3.5 mph - 0.00 in   Clear
6:55 PM 71.6 °F 53.6 °F 53% 29.52 in 9.0 mi Calm Calm - 0.00 in   Clear
7:15 PM 69.8 °F 53.6 °F 56% 29.51 in 10.0 mi ESE 4.6 mph - 0.00 in   Clear
7:35 PM 66.2 °F 53.6 °F 64% 29.51 in 3.0 mi ESE 5.8 mph - 0.00 in   Clear
7:55 PM 62.6 °F 53.6 °F 72% 29.51 in 6.0 mi SE 6.9 mph - 0.00 in   Clear
8:15 PM 62.6 °F 53.6 °F 72% 29.51 in 10.0 mi SE 5.8 mph - 0.00 in   Clear
8:35 PM 60.8 °F 53.6 °F 77% 29.51 in 10.0 mi SE 4.6 mph - 0.00 in   Clear
8:55 PM 59.0 °F 55.4 °F 88% 29.51 in 10.0 mi SSE 4.6 mph - 0.00 in   Clear
9:15 PM 60.8 °F 55.4 °F 82% 29.51 in 10.0 mi South 3.5 mph - 0.00 in   Clear
9:35 PM 59.0 °F 55.4 °F 88% 29.50 in 10.0 mi Calm Calm - 0.00 in   Clear
9:55 PM 59.0 °F 55.4 °F 88% 29.50 in 10.0 mi South 4.6 mph - 0.00 in   Clear
10:15 PM 57.2 °F 53.6 °F 88% 29.51 in 10.0 mi SW 4.6 mph - 0.00 in   Clear
10:35 PM 57.2 °F 53.6 °F 88% 29.51 in 10.0 mi SSW 4.6 mph - 0.00 in   Clear
10:55 PM 57.2 °F 53.6 °F 88% 29.51 in 10.0 mi WSW 4.6 mph - 0.00 in   Clear
11:15 PM 59.0 °F 55.4 °F 88% 29.52 in 10.0 mi SW 5.8 mph - 0.00 in   Clear
11:35 PM 60.8 °F 53.6 °F 77% 29.53 in 10.0 mi WSW 9.2 mph - 0.00 in   Clear
11:55 PM 64.4 °F 51.8 °F 64% 29.55 in 9.0 mi WNW 24.2 mph 35.7 mph 0.00 in   Partly Cloudy